Find Kosmos-1478

NORAD ID: 14176 Int'l Des: 1983-069 Owner: GUKOS Country: SU operational
LEOCIRCULAR

Live Position

Loading 3D Globe...

About Kosmos-1478

Description loading...

Upcoming Passes

Passes for default location (London). Set your location on the main map for personalized predictions.

Altitude History

Loading altitude history...

Two-Line Element Set

1 14176U 83069F 26105.79667399 .00000011 00000-0 18084-3 0 9991
2 14176 74.0222 122.3708 0012874 260.9870 272.8048 12.48262982949350
Epoch: Apr 15, 2026 • Age: 13 hours

Current Status

Altitude 1490.0 km
Velocity 7.12 km/s
Sub-Earth Point 60.65°N, 57.35°W
Launch Date Jul 6, 1983
Age 42.7 years
Type other

Technical Details

Classification Payload
Mass 60.00 kg
Dry Mass 60.00 kg
Total Mass 60.00 kg
Length 0.80 m
Diameter 0.80 m
Span 0.80 m
Shape Poly
Manufacturer NPOPM
Bus Type Strela-1 11F625
Phase Status In Orbit
Owner/State GUKOS/SU

Most Searched